Home   Weather   Bad Radkersburg   Past weeks

Flag for Austria Past Weather in Bad Radkersburg, Styria, Austria — Yesterday and Last 2 Weeks

Now
47 °F

Fog.


Feels Like: 47 °F
Forecast: 50 / 76 °F
Wind: 1 mph from Northwest

Location: Murska Sobota

Current Time: Sep 29, 2016 at 8:50:03 AM

Latest Report: Sep 29, 2016 at 8:00 AM


Visibility: 4 mi

Pressure: 30.33 "Hg

Humidity: 98%

Dew Point: 47 °F

Location of Bad RadkersburgLocation

Past Weather in Bad Radkersburg — Graph

°F

Bad Radkersburg Temperature Yesterday

Maximum temperature yesterday: 73 °F (at 4:00 PM)
Minimum temperature yesterday: 44 °F (at 7:00 AM)
Average temperature yesterday: 57 °F

High & Low Weather Summary for the Past Weeks

 TemperatureHumidityPressure
High82 °F (Sep 14, 4:00 PM)99% (Sep 25, 5:00 AM)30.42 "Hg (Sep 25, 5:00 AM)
Low38 °F (Sep 23, 7:00 AM)38% (Sep 25, 4:00 PM)29.75 "Hg (Sep 19, 3:00 PM)
Average60 °F76%30.09 "Hg
* Reported Sep 14 7:00 AM — Sep 29 7:00 AM, Bad Radkersburg, Weather by CustomWeather, © 2016

Note: Actual official high and low records may vary slightly from our data, if they occured in-between our weather recording intervals... More about our weather records

Advertising

Bad Radkersburg Weather History for the Previous 24 Hours

Scroll right to see more
 ConditionsComfort  
Time TempWeatherWind HumidityBarometerVisibility
7:00 AM
Thu, Sep 29
45 °FFog.No wind97%30.33 "Hg4 mi
6:00 AM46 °FCool.No wind98%30.33 "HgN/A
5:00 AM46 °FCool.No wind97%30.33 "HgN/A
4:00 AM46 °FCool.1 mph97%30.34 "HgN/A
3:00 AM47 °FCool.No wind98%30.34 "HgN/A
2:00 AM47 °FCool.1 mph96%30.36 "HgN/A
1:00 AM49 °FCool.No wind97%30.35 "HgN/A
12:00 AM50 °FCool.No wind96%30.36 "HgN/A
11:00 PM
Wed, Sep 28
51 °FCool.No wind91%30.36 "HgN/A
10:00 PM54 °FCool.No wind90%30.35 "HgN/A
9:00 PM55 °FCool.1 mph86%30.35 "HgN/A
8:00 PM58 °FPassing clouds.No wind75%30.34 "Hg6 mi
7:00 PM63 °FMild.1 mph63%30.33 "HgN/A
6:00 PM69 °FMild.1 mph52%30.32 "HgN/A
5:00 PM73 °FMild.2 mph41%30.32 "HgN/A
4:00 PM73 °FMild.2 mph41%30.32 "HgN/A
3:00 PM72 °FPartly sunny.2 mph43%30.34 "Hg6 mi
2:00 PM72 °FPartly sunny.2 mph44%30.36 "Hg6 mi
12:00 PM70 °FMild.2 mph52%30.39 "HgN/A
11:00 AM66 °FMild.2 mph63%30.41 "HgN/A
10:00 AMN/A2 mphN/AN/AN/A
9:00 AM53 °FCool.2 mph92%30.42 "HgN/A
8:00 AM47 °FFog.1 mph97%30.42 "Hg5 mi
Weather by CustomWeather, © 2016

See weather overviewHow to use our weather pages